Location: Pine Mountain Observatory
(43.7910°N, 120.9377°W)
Time: 17:00:58
(UTC-07:00)

Daily predictions for brighter satellites

Satellite Brightness Start Highest point End
(mag) Time Altitude Azimuth Time Altitude Azimuth Time Altitude Azimuth
USA 215 4.4 19:44:04 10° ENE 19:48:53 21° ESE 19:53:40 10° S
Cosmos 1437 Rocket 2.9 19:45:07 10° S 19:49:02 57° E 19:53:03 10° NNE
Cosmos 2150 Rocket 4.0 19:44:08 10° S 19:49:11 60° ESE 19:54:16 10° NNE
SJ-6B 2.7 19:49:56 10° SSE 19:53:40 89° E 19:57:26 10° NNW
ALOS 2.3 19:50:17 10° SSE 19:54:56 72° ENE 19:59:37 10° N
Meteor 1-22 Rocket 4.5 19:50:14 10° S 19:55:51 53° E 20:01:42 10° NNE
Cosmos 990 Rocket 4.1 19:51:17 10° S 19:56:22 53° ESE 20:01:29 10° NNE
Helios 1B rocket 3.8 19:54:37 10° NE 19:57:29 18° E 20:00:19 10° SE
BREEZE-M DEB (TANK) 3.7 19:55:40 10° WNW 19:57:50 23° N 19:59:51 10° ENE
Cosmos 1898 Rocket 3.6 19:53:36 10° SSW 19:58:55 87° WNW 20:04:15 10° NNE
Cosmos 1605 Rocket 4.4 19:54:16 10° SSE 20:00:02 41° E 20:05:55 10° NNE
Envisat 4.3 19:58:09 10° ESE 20:02:00 22° ENE 20:05:52 10° NNE
In-Cosmos 22 4.4 19:57:17 10° N 20:02:24 45° ENE 20:07:26 10° SSE
Cosmos 1378 3.1 19:58:57 10° N 20:02:44 86° E 20:06:29 10° S
Helios 1A 3.9 20:01:32 10° SE 20:05:06 28° ENE 20:08:43 10° N
Cosmos 1844 Rocket 2.9 20:00:07 10° SSW 20:05:47 78° WNW 20:11:27 10° NNE
Lacrosse 4 Rocket 1.6 20:03:27 10° SW 20:07:29 71° WNW 20:11:33 10° NNE
Cosmos 2123 Rocket 4.0 20:05:20 10° N 20:11:39 67° E 20:17:53 10° SSE
HJ-1C 3.5 20:08:32 10° S 20:11:55 79° W 20:15:21 10° NNW
Cosmos 2344 3.6 20:04:22 10° SSW 20:11:58 70° ESE 20:20:30 10° NE
Cosmos 1833 Rocket 3.7 20:09:56 10° N 20:14:49 29° NE 20:18:39 14° ESE
Geosat 4.3 20:10:08 10° NE 20:14:57 44° ESE 20:19:44 10° S
Cosmos 1758 4.2 20:11:58 10° SSE 20:15:23 28° E 20:18:50 10° NNE
Cosmos 2278 Rocket 2.2 20:12:25 10° S 20:17:58 58° ESE 20:23:33 10° NNE
SL-27 R/B 2.5 20:15:46 10° NNW 20:19:21 85° WSW 20:22:58 10° SSE
Lacrosse 5 1.9 20:14:30 10° SSW 20:19:29 61° SE 20:24:30 10° NE
H-2A R/B 2.8 20:17:56 10° SSE 20:21:48 89° SW 20:25:47 10° NNW
FENGYUN 3A 4.1 20:17:32 10° S 20:22:55 68° WSW 20:28:19 10° NNW
USA 267 4.4 20:17:38 10° ENE 20:23:17 32° NNE 20:28:56 10° NW
Cosmos 1953 3.0 20:21:09 10° SSE 20:24:50 34° E 20:28:31 10° NNE
Meteor 1-4 Rocket 3.3 20:21:54 10° SSE 20:24:58 29° E 20:28:01 10° NNE
Meteor 1-29 4.0 20:22:16 10° NE 20:25:10 24° E 20:27:29 13° SSE
ERS-1 Rocket 4.4 20:23:28 16° E 20:25:37 21° ENE 20:29:16 10° NNE
Cosmos 1939 Rocket 4.1 20:24:03 18° ESE 20:25:59 25° ENE 20:29:24 10° NNE
COSMOS 2487 3.8 20:24:11 10° N 20:27:07 23° ENE 20:28:08 20° E
Resurs 1-3 3.6 20:24:05 10° SSE 20:28:28 89° ENE 20:32:53 10° NNW
Cosmos 1544 3.3 20:25:41 10° SSE 20:29:09 46° E 20:32:42 10° NNE
Cosmos 1937 Rocket 4.0 20:24:56 10° SSW 20:30:08 65° WNW 20:35:26 10° NNE
Cosmos 2297 4.3 20:26:35 10° SSE 20:31:41 35° ESE 20:36:49 10° NE
Cosmos 1818 3.7 20:26:57 10° NNW 20:32:20 57° NE 20:36:09 19° SE
SeaSat 1 3.7 20:30:27 10° S 20:35:05 41° WSW 20:39:45 10° NW
Meteor 1-24 Rocket 4.3 20:31:27 10° NNW 20:36:49 60° W 20:42:21 10° S
ATLAS 5 CENTAUR R/B 3.5 20:34:14 10° SSE 20:35:09 14° SE 20:35:09 14° SE
Tiangong 1 2.5 20:39:32 10° W 20:42:02 25° SSW 20:43:02 20° S
Cosmos 1269 Rocket 4.2 20:39:22 10° NNW 20:44:33 53° ENE 20:47:42 23° SE
Cosmos 1766 4.2 20:41:14 10° SSW 20:45:00 50° WNW 20:48:49 10° N
Lacrosse 5 rocket 2.7 20:41:53 10° NNW 20:45:12 24° NNE 20:46:35 20° ENE
Cosmos 1408 Rocket 3.9 20:40:59 10° N 20:45:18 45° ENE 20:47:32 25° SE
Cosmos 2082 Rocket 2.4 20:41:08 10° NNW 20:46:44 53° ENE 20:49:57 24° SE
Abrixas 2.2 20:46:08 10° WNW 20:48:59 82° NNE 20:49:24 60° E
Cosmos 1271 Rocket 3.7 20:49:53 29° ENE 20:49:53 29° ENE 20:52:54 10° NNE
Cosmos 1447 Rocket 4.4 20:44:33 10° N 20:50:43 74° E 20:56:51 10° SSE
Cosmos 468 4.4 20:47:41 10° NNW 20:52:57 88° ENE 20:57:06 17° SSE
Okean 3 Rocket 3.9 20:48:39 10° NNW 20:53:02 68° W 20:57:24 10° S
RESURS DK-1 3.7 20:49:33 10° NW 20:53:24 37° WSW 20:57:12 10° S
USA 186 1.7 20:53:12 41° SW 20:53:38 50° W 20:55:50 10° NNW
Cosmos 2098 Rocket 4.3 20:46:33 10° S 20:53:38 74° E 21:01:15 10° NNE
Cosmos 1459 Rocket 4.2 20:51:25 10° SSE 20:57:19 45° E 21:03:10 10° NNE
Cosmos 2173 Rocket 4.2 20:54:53 10° SSE 21:00:44 47° E 21:06:41 10° NNE
BREEZE-M DEB (TANK) 3.4 20:59:37 10° WSW 21:02:43 86° SSE 21:12:18 10° ENE
SJ-11-01 4.2 21:03:04 27° SSE 21:05:37 74° ENE 21:10:22 10° N
Cosmos 1867 3.5 21:03:23 10° SSW 21:08:43 59° ESE 21:14:06 10° NE
ARGOS 4.2 21:10:50 26° ENE 21:11:02 26° ENE 21:15:26 10° N
Cosmos 1674 2.5 21:08:17 10° N 21:12:04 87° E 21:12:51 55° SSE
Cosmos 372 Rocket 3.8 21:08:59 10° S 21:14:02 67° ESE 21:19:10 10° NNE
GP-B 3.3 21:13:13 12° S 21:17:15 71° W 21:21:42 10° N
CZ-3B DEB 3.2 21:09:01 10° WSW 21:18:34 54° NW 21:22:23 15° NE
Resurs 01 Rocket 4.0 21:16:33 10° SSW 21:20:02 23° W 21:23:34 10° NW
Timation 1 Rocket 4.4 21:14:58 10° SSW 21:20:59 82° WNW 21:27:03 10° NNE
Cosmos 1076 Rocket 4.4 21:19:03 10° NNW 21:23:09 47° W 21:26:08 17° SSW
Cosmos 158 Rocket 3.9 21:19:39 10° NNW 21:24:47 85° WSW 21:26:34 42° SSE
CZ-4B DEB 4.2 21:27:52 32° WSW 21:28:18 33° W 21:31:10 10° NNW
Cosmos 1766 Rocket 4.0 21:24:01 10° NNW 21:28:28 61° W 21:30:29 30° SSW
YAOGAN 6 3.3 21:31:51 46° N 21:31:51 46° N 21:34:38 10° N
Cosmos 2016 Rocket 3.9 21:30:07 42° SSE 21:32:03 60° E 21:38:06 10° NNE
USA 215 3.1 21:25:58 10° NE 21:32:32 80° SE 21:39:04 10° SW
Helios 1B rocket 3.8 21:29:05 10° N 21:32:57 40° WNW 21:36:48 10° SW
Cosmos 1340 Rocket 2.8 21:29:39 10° N 21:33:27 78° NNW 21:33:27 78° NNW
Cosmos 1470 2.9 21:33:52 74° WSW 21:34:00 75° W 21:37:59 10° N
H-2A R/B 3.4 21:35:56 25° NE 21:35:56 25° NE 21:39:26 10° N
Cosmos 494 Rocket 4.4 21:31:19 10° N 21:35:57 45° NE 21:35:57 45° NE
Cosmos 1725 Rocket 4.3 21:39:17 46° ENE 21:39:17 46° ENE 21:44:42 10° NNE
Meteor 2-17 Rocket 4.3 21:38:47 49° SSE 21:40:24 68° E 21:46:31 10° NNE
Envisat 3.7 21:37:40 22° SSW 21:40:41 50° W 21:45:38 10° NNW
Cosmos 2100 Rocket 4.2 21:39:05 10° SSW 21:45:23 74° W 21:51:47 10° N
Cosmos-2242 3.8 21:46:50 32° SW 21:48:28 49° WNW 21:52:37 10° N
Cosmos 1125 Rocket 4.5 21:44:28 10° SW 21:49:27 46° WNW 21:54:30 10° N
Tsikada Rocket 4.0 21:44:42 10° N 21:50:48 58° ENE 21:50:48 58° ENE
SL-08 R/B 4.4 21:51:05 62° SSE 21:52:02 72° E 21:58:26 10° NNE
Cosmos 1733 4.3 21:53:21 44° WNW 21:53:21 44° WNW 21:56:46 10° N
Cosmos 1833 Rocket 3.4 21:53:34 10° NW 21:58:56 47° WSW 22:00:23 38° SSW
Cosmos 1743 Rocket 4.2 21:55:54 10° NNW 21:59:49 55° WNW 21:59:49 55° WNW
NOAA 11 4.1 22:00:24 84° NE 22:00:24 84° NE 22:05:50 10° NNW
H-2A R/B 4.4 22:04:18 15° NNE 22:04:18 15° NNE 22:05:10 10° N
Cosmos 2278 Rocket 4.4 21:57:49 10° WSW 22:02:26 25° NW 22:07:05 10° N
Lacrosse 5 3.4 21:58:09 10° W 22:02:45 34° NNW 22:05:49 18° NNE
Cosmos 1500 Rocket 4.5 21:58:26 10° NNW 22:01:28 44° NNW 22:01:28 44° NNW
ERS-1 Rocket 3.5 22:03:27 52° SW 22:03:59 54° W 22:08:57 10° NNW
Cosmos 1802 Rocket 4.2 22:00:26 24° SSW 22:04:16 66° W 22:10:25 10° N
SPOT 5 3.2 22:05:38 71° N 22:05:38 71° N 22:10:25 10° NNW
USA 267 3.3 22:04:45 60° ENE 22:05:37 66° NE 22:12:06 10° NW
MetOp-B 4.2 22:08:27 77° WNW 22:08:27 77° WNW 22:13:33 10° NNW
Meteor 1-11 4.3 22:11:08 10° NNW 22:16:13 71° NW 22:16:13 71° NW
SPOT 1/Viking Rocket 4.3 22:19:58 47° N 22:19:58 47° N 22:23:39 10° N
Cosmos 2251 Rocket 4.0 22:16:02 10° NNW 22:20:23 58° NW 22:20:23 58° NW
ATLAS 5 CENTAUR R/B 4.4 22:16:57 10° SW 22:27:52 - NNE 22:17:00 10° SW
Lacrosse 5 rocket 3.7 22:20:54 10° NW 22:22:18 21° WNW 22:22:18 21° WNW
Cosmos 2082 Rocket 4.0 22:26:00 10° NW 22:30:25 24° WSW 22:31:51 21° WSW
Terra 3.9 22:35:05 21° N 22:35:05 21° N 22:36:47 10° N
ARGOS 4.4 22:52:21 38° WNW 22:52:21 38° WNW 22:56:11 10° NNW
H-2A R/B 3.9 23:16:33 29° NW 23:16:33 29° NW 23:19:21 10° NNW
USA 215 4.3 23:09:10 10° NE 23:15:14 42° NNW 23:21:16 10° W
